Retour au catalogue

STARLINK-36877

ActifCommunicationsSSO
NORAD 67896·PAYLOAD·🇺🇸 United States

Lancé Feb 21, 2026 depuis Vandenberg Space Force Base

Loading…

Prochains Passages (prochaines 24 heures)

TLE

FraisSource: CelesTrak SupGP

Époque: Sep 15, 2026, 04:03 UTC

1 67896C 26035T   26258.16923611  .00101050  00000+0  31370-2 0  2584
2 67896  97.2847 190.1313 0002042  97.7577  74.5019 15.33385991    17

Suivez STARLINK-36877 en temps réel avec AllMySat

Download on the App Store